Tracking 18851 objects as of 24-Nov-2017
HD Live streaming from Space Station
objects crossing your sky now

COSMOS 1629

Track COSMOS 1629 now!
COSMOS 1629 is classified as:


NORAD ID: 15574
Int'l Code: 1985-016A
Perigee: 35,769.2 km
Apogee: 35,815.4 km
Inclination: 14.1 °
Period: 1,436.0 minutes
Semi major axis: 42163 km
RCS: 1.2589 m2 (large)
Launch date: February 21, 1985
Source: Commonwealth of Independent States (former USSR) (CIS)
Launch site: TYURATAM MISSILE AND SPACE COMPLEX (TTMTR)
aabbcc
Your satellite tracking list
Your tracking list is empty




NASA's NSSDC Master Catalog

Two Line Element Set (TLE):
1 15574U 85016A   17328.34948147 +.00000053 +00000-0 +00000-0 0  9991
2 15574 014.1231 342.3044 0005485 216.4334 173.9033 01.00276923119109
Source of the keplerian elements: AFSPC